TimeEDT,TemperatureF,Dew PointF,Humidity,Sea Level PressureIn,VisibilityMPH,Wind Direction,Wind SpeedMPH,Gust SpeedMPH,PrecipitationIn,Events,Conditions,WindDirDegrees,DateUTC
12:53 AM,57.0,48.9,74,29.70,10.0,North,6.9,-,N/A,,Partly Cloudy,350,2012-10-16 04:53:00
1:53 AM,55.9,46.0,69,29.70,10.0,NNW,10.4,18.4,N/A,,Clear,340,2012-10-16 05:53:00
2:53 AM,53.1,45.0,74,29.70,10.0,NNW,8.1,-,N/A,,Clear,330,2012-10-16 06:53:00
3:53 AM,52.0,44.1,74,29.70,10.0,NW,6.9,-,N/A,,Clear,320,2012-10-16 07:53:00
4:53 AM,50.0,43.0,77,29.71,10.0,NNW,5.8,-,N/A,,Clear,330,2012-10-16 08:53:00
5:53 AM,50.0,42.1,74,29.74,10.0,WNW,4.6,-,N/A,,Mostly Cloudy,300,2012-10-16 09:53:00
6:53 AM,48.9,43.0,80,29.77,10.0,NW,4.6,-,N/A,,Scattered Clouds,320,2012-10-16 10:53:00
8:53 AM,53.1,39.0,59,29.81,10.0,North,6.9,-,N/A,,Clear,350,2012-10-16 12:53:00
9:53 AM,53.1,37.0,55,29.81,10.0,NNW,12.7,-,0.01,,Partly Cloudy,340,2012-10-16 13:53:00
10:53 AM,55.9,37.9,51,29.82,10.0,North,12.7,20.7,N/A,,Scattered Clouds,360,2012-10-16 14:53:00
11:53 AM,57.0,37.9,49,29.83,10.0,North,11.5,19.6,N/A,,Mostly Cloudy,350,2012-10-16 15:53:00
12:53 PM,57.9,37.0,46,29.82,10.0,NNW,17.3,24.2,N/A,,Clear,340,2012-10-16 16:53:00
1:53 PM,59.0,37.0,44,29.81,10.0,North,11.5,21.9,N/A,,Clear,350,2012-10-16 17:53:00
2:51 PM,59.0,35.6,42,29.82,10.0,North,9.2,-,N/A,,Clear,350,2012-10-16 18:51:00
2:53 PM,59.0,36.0,42,29.80,10.0,North,9.2,-,N/A,,Clear,350,2012-10-16 18:53:00
3:53 PM,60.1,37.0,42,29.79,10.0,NNW,10.4,-,N/A,,Clear,330,2012-10-16 19:53:00
4:53 PM,59.0,37.0,44,29.80,10.0,NNW,8.1,-,N/A,,Clear,330,2012-10-16 20:53:00
5:53 PM,57.9,37.9,47,29.81,10.0,NW,5.8,-,N/A,,Clear,320,2012-10-16 21:53:00
6:53 PM,55.0,37.9,53,29.83,10.0,WNW,3.5,-,N/A,,Clear,290,2012-10-16 22:53:00
7:53 PM,52.0,37.9,59,29.86,10.0,WNW,3.5,-,N/A,,Clear,300,2012-10-16 23:53:00
8:53 PM,48.0,39.0,71,29.87,10.0,North,3.5,-,N/A,,Clear,10,2012-10-17 00:53:00
9:53 PM,46.0,39.0,76,29.89,10.0,NNW,4.6,-,N/A,,Clear,340,2012-10-17 01:53:00
10:53 PM,44.1,39.0,82,29.90,10.0,NNW,3.5,-,N/A,,Clear,330,2012-10-17 02:53:00
11:53 PM,44.1,37.9,79,29.91,10.0,Calm,Calm,-,N/A,,Clear,0,2012-10-17 03:53:00